Regional Weather Roundup
Issued by NWS

Home | Current Version | Previous Version | Graphics & Text | Print | Product List | Glossary On
Versions: 1 2 3 4 5 6 7 8 9 10 11 12 13 14 15 16 17 18 19 20 21 22 23 24 25 26 27 28 29 30 31 32 33 34 35 36 37 38 39 40 41 42 43 44 45 46 47 48 49 50
000
ASUS45 KBOU 121107
RWRCO

WEATHER ROUNDUP FOR COLORADO
NATIONAL WEATHER SERVICE DENVER/BOULDER CO
400 AM MST FRI FEB 12 2016

NOTE: "FAIR" INDICATES FEW OR NO CLOUDS BELOW 12000 FEET WITH NO
SIGNIFICANT WEATHER AND/OR OBSTRUCTIONS TO VISIBILITY.

COZ001>005-013-030-031-121200-
...NORTHWEST COLORADO...

CITY           SKY/WX    TMP DP  RH WIND       PRES   REMARKS
CRAIG          CLOUDY     7   3  84 CALM      30.42R
HAYDEN         CLOUDY    21  12  68 E14       30.40S WCI   8
MEEKER         CLOUDY    16  11  80 NE3       30.41S
MOUNT WERNER   NOT AVBL
STEAMBOAT SPGS CLOUDY    15  12  88 CALM      30.42S
WALDEN         CLOUDY    27  18  69 SE7       30.39F WCI  19
$$

COZ006>008-011-121200-
...WEST CENTRAL VALLEYS...

CITY           SKY/WX    TMP DP  RH WIND       PRES   REMARKS
GRAND JUNCTION CLOUDY    24  21  88 CALM      30.42R
MONTROSE       CLOUDY    25  17  72 SE10      30.45S WCI  15
EAGLE          CLOUDY    16  16 100 CALM      30.48S
RIFLE          CLOUDY    19  12  74 CALM      30.44F
DELTA          CLOUDY    29  24  80 N8        30.45S WCI  21
NUCLA          CLOUDY    28  21  74 SE7       30.46S WCI  21
$$

COZ017>023-064>068-121200-
...SOUTHWEST COLORADO...

CITY           SKY/WX    TMP DP  RH WIND       PRES   REMARKS
DURANGO        CLOUDY    23  17  78 N5        30.41S WCI  17
CORTEZ         CLOUDY    21  16  81 NE7       30.41S WCI  12
PAGOSA SPRINGS CLOUDY    23  15  73 CALM      30.43S
TELLURIDE      CLOUDY    31  11  42 E5        30.49S WCI  27
WOLF CREEK PAS CLOUDY    30   7  37 SW12      30.56S WCI  21
$$

COZ009-010-012-014-032>034-037-058>063-121200-
...CENTRAL COLORADO...

CITY           SKY/WX    TMP DP  RH WIND       PRES   REMARKS
ASPEN          CLOUDY    20  12  71 S5        30.42F WCI  13
BUENA VISTA    CLOUDY    25  19  77 CALM      30.41F
COPPER MTN     CLOUDY    28  14  54 W17G24    30.49S WCI  16
BERTHOUD PASS  FAIR      21  10  63 NW38G45   30.42S WCI   1
COTTONWOOD PAS CLOUDY    37  12  35 N3        30.43F
GUNNISON       CLOUDY    -4 N/A N/A NE3       30.56R
KREMMLING      CLOUDY     0  -6  78 CALM      30.48R
LEADVILLE      CLOUDY    24  13  62 E5        30.43F WCI  18
MONARCH PASS   CLOUDY    23   7  50 MISG      30.58S
SALIDA         NOT AVBL
SUNLIGHT       CLOUDY    32  12  43 CALM        N/A
WILKERSON PASS CLOUDY    30  18  59 MISG      30.49S
$$

COZ069>075-121200-
...SAN LUIS VALLEY/SANGRE DE CRISTO MOUNTAINS...

CITY           SKY/WX    TMP DP  RH WIND       PRES   REMARKS
ALAMOSA        CLOUDY    24  18  77 S3        30.41S
LA VETA PASS   CLOUDY    32  10  40 MISG      30.41S
SAGUACHE       CLOUDY    28  14  54 NW12      30.43R WCI  18
$$

COZ035-036-038>040-121200-
...NORTHERN COLORADO FRONT RANGE...

CITY           SKY/WX    TMP DP  RH WIND       PRES   REMARKS
DENVER INTL AP CLOUDY    33  25  72 SE10      30.26R WCI  25
DMNS CITY PARK   N/A     34  24  67 NW2       30.27R
AURORA         PTCLDY    33  24  70 NW3       30.27R
FRONT RANGE AP NOT AVBL
ERIE MUNI ARPT CLOUDY    29  26  90 CALM      30.27F
BOULDER MUN AP CLOUDY    37  27  65 SW5       30.27F
CENTENNIAL     CLOUDY    34  24  67 S3        30.26S
BROOMFIELD     CLOUDY    36  27  69 NW16      30.26F
FORT COLLINS   CLOUDY    34  21  60 S3        30.28F
LONGMONT       CLOUDY    32  26  76 E3        30.28F
$$

COZ041-046-047-076>085-087-088-121200-
...PIKES PEAK/PALMER DIVIDE AND SOUTHERN FOOTHILLS...

CITY           SKY/WX    TMP DP  RH WIND       PRES   REMARKS
COLO. SPRINGS  CLOUDY    29  21  72 NE7       30.32S WCI  22
A. F. ACADEMY  CLOUDY    26  20  80 N8        30.31S WCI  17
SCHRIEVER AFB  FAIR      34  22  61 W5        30.31F WCI  29
ELLICOTT       CLOUDY   N/A N/A N/A CALM      30.30F
FALCON         CLOUDY    28  20  71 W5        30.32S WCI  23
FORT CARSON    CLOUDY    33  24  69 N10       30.29S WCI  25
LIMON          CLOUDY    19  17  92 N7        30.30F WCI  10
MONUMENT HILL  CLOUDY    32  21  64 SW9       30.31S WCI  24
TRINIDAD       CLOUDY    34  21  59 W14       30.32S WCI  25
$$

COZ042>045-048>051-090-091-121200-
...NORTHEAST COLORADO...

CITY           SKY/WX    TMP DP  RH WIND       PRES   REMARKS
GREELEY ARPT   CLOUDY    28  25  86 NW6       30.29S WCI  22
AKRON          CLOUDY    33  26  75 W9        30.27S WCI  25
BURLINGTON     CLOUDY    31  25  78 W8        30.29R WCI  23
WRAY           NOT AVBL
STERLING       CLOUDY    28  27  93 S3        30.27R
HOLYOKE        CLEAR     32  30  93 W7        30.27S WCI  26
FORT MORGAN    CLOUDY    31  27  83 CALM      30.28S
$$

COZ086-089-092>099-121200-
...SOUTHEAST COLORADO...

CITY           SKY/WX    TMP DP  RH WIND       PRES   REMARKS
PUEBLO         CLOUDY    30  24  78 CALM      30.30F
LA JUNTA       CLOUDY    32  26  78 SW5       30.31S WCI  27
LAMAR          CLOUDY    30  27  88 SW7       30.30R WCI  23
SPRINGFIELD      N/A     29  23  78 W12       30.30S WCI  19
$$



USA.gov is the U.S. government's official web portal to all federal, state and local government web resources and services.